Powrót do katalogu

NOAA 16 DEB

AktywnySSO
NORAD 41051·DEBRIS·🇺🇸 United States

Wystrzelony Sep 21, 2000 z Vandenberg Space Force Base

Loading…

Następne Przeloty (najbliższe 24 godziny)

TLE

ŚwieżeSource: Space-Track

Epoka: Sep 13, 2026, 12:48 UTC

1 41051U 00055J   26256.53342720  .00003130  00000-0  10967-2 0  9990
2 41051  98.7904   8.5027 0012600  16.5064 343.6529 14.35777855559680

Śledź NOAA 16 DEB w czasie rzeczywistym z AllMySat

Download on the App Store